This demonstration page uses our WeatherBlox Daily Observations layout. Learn more.

Left ArrowRight Arrow

Hourly Observations for March 15, 2020

Temp ( °F °C ) Dew Point ( °F °C ) Humidity (%) Winds ( mph kmh ) Pressure ( in mb ) Visibility ( mi km ) Precip ( " mm )
12:56 am 00:56 Cloudy 33 0.7 28 -2.2 81 81 NE 9 15 30.63 1037 10 16 0.00 0.00
1:56 am 01:56 Cloudy 33 0.3 28 -2.3 83 83 ENE 9 15 30.62 1037 10 16 0.00 0.00
2:56 am 02:56 Cloudy 32 0.2 28 -2.5 82 82 ENE 9 15 30.63 1037 10 16 0.00 0.00
3:56 am 03:56 Cloudy 32 -0.2 27 -2.9 82 82 ENE 9 15 30.63 1037 10 16 0.00 0.00
4:56 am 04:56 Cloudy 31 -0.4 26 -3.4 80 80 NE 9 15 30.63 1037 10 16 0.00 0.00
5:56 am 05:56 Cloudy 31 -0.4 25 -3.9 78 78 E 9 15 30.64 1038 10 16 0.00 0.00
6:56 am 06:56 Cloudy 31 -0.5 25 -4 77 77 ESE 5 7 30.66 1038 10 16 0.00 0.00
7:56 am 07:56 Cloudy 31 -0.5 26 -3.5 80 80 ENE 5 7 30.65 1038 10 16 0.00 0.00
8:41 am 08:41 Cloudy 32 0 27 -3 80 80 E 8 13 30.65 1038 10 16 0.00 0.00
8:56 am 08:56 Cloudy 32 -0.1 25 -3.7 77 77 E 7 11 30.65 1038 10 16 0.00 0.00
9:26 am 09:26 Cloudy 32 0 25 -4 75 75 E 8 13 30.66 1038 10 16 0.00 0.00
9:56 am 09:56 Cloudy 33 0.3 25 -3.8 74 74 ESE 8 13 30.66 1038 10 16 0.00 0.00
10:26 am 10:26 Cloudy 32 0 25 -4 75 75 SE 9 15 30.66 1038 10 16 0.00 0.00
10:56 am 10:56 Cloudy 33 0.7 26 -3.2 75 75 SE 7 11 30.66 1038 10 16 0.00 0.00
11:11 am 11:11 Cloudy 34 1 27 -3 75 75 SE 10 17 30.66 1038 10 16 0.00 0.00
11:26 am 11:26 Cloudy 34 1 27 -3 75 75 SE 10 17 30.65 1038 10 16 0.00 0.00
11:56 am 11:56 Cloudy 34 0.9 27 -3 75 75 SE 8 13 30.65 1038 10 16 0.00 0.00
12:56 pm 12:56 Cloudy 35 1.5 27 -2.6 74 74 SSE 9 15 30.63 1037 10 16 0.00 0.00
1:11 pm 13:11 Cloudy 34 1 28 -2 81 81 SSE 9 15 30.63 1037 10 16 0.00 0.00
1:56 pm 13:56 Cloudy 35 1.6 28 -2.4 75 75 SE 8 13 30.60 1036 10 16 0.00 0.00
2:56 pm 14:56 Cloudy 35 1.7 28 -2.1 76 76 SE 9 15 30.55 1034 10 16 0.00 0.00
3:56 pm 15:56 Cloudy 35 1.8 28 -2.3 75 75 SE 7 11 30.53 1034 10 16 0.00 0.00
4:56 pm 16:56 Cloudy 36 2 29 -1.8 76 76 ESE 7 11 30.50 1033 10 16 0.00 0.00
5:56 pm 17:56 Cloudy 35 1.8 29 -1.8 77 77 ESE 6 9 30.48 1032 10 16 0.00 0.00
6:56 pm 18:56 Cloudy 35 1.5 29 -1.9 78 78 SE 12 19 30.47 1032 10 16 0.00 0.00
7:56 pm 19:56 Cloudy 35 1.4 28 -2 78 78 SE 9 15 30.47 1032 10 16 0.00 0.00
8:56 pm 20:56 Cloudy 34 1.3 29 -1.8 80 80 SSE 6 9 30.46 1031 10 16 0.00 0.00
9:56 pm 21:56 Cloudy 34 1.3 29 -1.6 81 81 SE 7 11 30.45 1031 10 16 0.00 0.00
10:56 pm 22:56 Cloudy 34 1.2 29 -1.5 82 82 SE 3 6 30.42 1030 10 16 0.00 0.00
11:05 pm 23:05 Cloudy 34 1 30 -1 87 87 SE 3 6 30.42 1030 10 16 0.00 0.00
11:35 pm 23:35 Cloudy with Light Wintry Mix 34 1 30 -1 87 87 SSE 5 7 30.42 1030 10 16 0.00 0.00
11:56 pm 23:56 Cloudy with Drizzle 33 0.8 31 -0.5 91 91 SSE 6 9 30.42 1030 5 8 0.00 0.00

Powered by AerisWeather